FW9688 Weather Reports


time (UTC)temp
F
wind
direction
speed
knots
gust
knots
rain 1hr
in
rain 24hr
in
rain mn
in
humidity
%
barometer
mb
20260506221549 80 360 19.1 24.3 0.00 0.00 0.00 17 1011.6
20260506220046 80 360 15.6 22.6 0.00 0.00 0.00 17 1011.5
20260506214544 80 360 20.0 25.2 0.00 0.00 0.00 17 1011.6
20260506213051 80 360 12.2 21.7 0.00 0.00 0.00 18 1011.9
20260506211537 80 360 16.5 24.3 0.00 0.00 0.00 17 1011.9
20260506210045 80 360 13.9 23.5 0.00 0.00 0.00 18 1012.3
20260506204545 78 360 10.4 23.5 0.00 0.00 0.00 19 1012.3
20260506203036 79 244 12.2 22.6 0.00 0.00 0.00 19 1012.6
20260506201543 78 360 11.3 17.4 0.00 0.00 0.00 21 1012.5
20260506200039 78 360 10.4 20.9 0.00 0.00 0.00 23 1012.7
20260506194538 78 360 7.8 14.8 0.00 0.00 0.00 24 1013.0
20260506193038 76 360 5.2 20.9 0.00 0.00 0.00 25 1013.1
20260506191543 77 360 13.0 20.9 0.00 0.00 0.00 24 1013.3
20260506190044 76 360 8.7 13.9 0.00 0.00 0.00 25 1013.6
20260506184550 75 360 8.7 20.9 0.00 0.00 0.00 25 1013.9
20260506183051 75 360 9.6 17.4 0.00 0.00 0.00 26 1014.0
20260506181605 75 360 9.6 15.6 0.00 0.00 0.00 26 1014.2
20260506180037 74 360 5.2 13.0 0.00 0.00 0.00 28 1014.5
20260506174543 75 360 7.8 13.0 0.00 0.00 0.00 36 1014.7
20260506173056 71 360 5.2 9.6 0.00 0.00 0.00 39 1014.9
20260506171540 71 360 7.8 13.0 0.00 0.00 0.00 41 1014.6
20260506170042 71 360 2.6 11.3 0.00 0.00 0.00 42 1014.7
20260506164539 71 360 7.8 12.2 0.00 0.00 0.00 42 1014.6
20260506163039 74 360 8.7 14.8 0.00 0.00 0.00 34 1014.6
20260506161546 72 360 7.0 13.0 0.00 0.00 0.00 29 1014.6
20260506160051 72 360 9.6 13.0 0.00 0.00 0.00 28 1014.3
20260506154547 71 360 7.8 12.2 0.00 0.00 0.00 31 1014.2
20260506153055 70 360 6.1 12.2 0.00 0.00 0.00 36 1014.1
20260506151543 69 360 9.6 13.9 0.00 0.00 0.00 37 1013.9
20260506150044 70 360 13.0 18.2 0.00 0.00 0.00 35 1013.6
20260506144537 68 360 7.8 11.3 0.00 0.00 0.00 37 1013.6
20260506143042 67 360 6.1 9.6 0.00 0.00 0.00 39 1013.6
20260506141540 66 360 7.0 10.4 0.00 0.00 0.00 38 1013.6
20260506140038 66 360 7.8 11.3 0.00 0.00 0.00 36 1013.3
20260506134537 65 360 9.6 14.8 0.00 0.00 0.00 37 1013.1
20260506133038 65 360 9.6 13.0 0.00 0.00 0.00 36 1012.9
20260506131551 65 360 8.7 11.3 0.00 0.00 0.00 36 1012.7
20260506130043 65 360 7.0 9.6 0.00 0.00 0.00 37 1012.7
20260506124543 65 360 3.5 4.3 0.00 0.00 0.00 38 1012.4
20260506123038 65 360 2.6 5.2 0.00 0.00 0.00 35 1012.4
20260506121539 65 360 1.7 4.3 0.00 0.00 0.00 36 1012.2
20260506120040 64 360 4.3 5.2 0.00 0.00 0.00 38 1011.9
20260506114537 65 360 7.0 9.6 0.00 0.00 0.00 36 1011.7
20260506113044 64 360 6.1 7.8 0.00 0.00 0.00 38 1011.7
20260506111540 66 360 5.2 7.8 0.00 0.00 0.00 34 1011.6
20260506110038 66 360 7.0 10.4 0.00 0.00 0.00 32 1011.6
20260506104537 65 360 6.1 9.6 0.00 0.00 0.00 34 1011.4
20260506103052 67 360 7.8 10.4 0.00 0.00 0.00 32 1011.2
20260506101544 68 360 9.6 11.3 0.00 0.00 0.00 31 1011.0
20260506100041 67 360 8.7 11.3 0.00 0.00 0.00 33 1011.1
20260506094541 66 360 8.7 11.3 0.00 0.00 0.00 36 1010.9
20260506093038 67 360 7.8 10.4 0.00 0.00 0.00 37 1010.9
20260506091543 67 360 7.0 10.4 0.00 0.00 0.00 37 1010.8
20260506090037 68 360 8.7 13.0 0.00 0.00 0.00 36 1010.6
20260506084544 68 360 7.8 12.2 0.00 0.00 0.00 42 1010.5
20260506083036 68 360 6.1 8.7 0.00 0.00 0.00 45 1010.6
20260506081543 67 360 3.5 5.2 0.00 0.00 0.00 46 1010.6
20260506073037 69 360 7.0 8.7 0.00 0.00 0.00 43 1010.6
20260506071537 69 360 4.3 7.8 0.00 0.00 0.00 44 1010.4
20260506061537 71 360 2.6 4.3 0.00 0.00 0.00 40 1010.2
20260506044546 71 0 0.0 1.7 0.00 0.00 0.00 39 1009.9
20260506043043 71 360 1.7 2.6 0.00 0.00 0.00 38 1009.9
20260506041543 72 360 1.7 3.5 0.00 0.00 0.00 37 1009.8
20260506040044 73 360 1.7 3.5 0.00 0.00 0.00 37 1009.6
20260506034557 73 360 1.7 5.2 0.00 0.00 0.00 37 1009.5
20260506033038 72 360 3.5 5.2 0.00 0.00 0.00 38 1009.2
20260506031544 72 360 4.3 7.0 0.00 0.00 0.00 38 1009.0
20260506030044 73 360 3.5 5.2 0.00 0.00 0.00 37 1009.1
20260506024557 71 360 4.3 7.0 0.00 0.00 0.00 39 1008.8
20260506023041 72 360 5.2 7.8 0.00 0.00 0.00 38 1008.8
20260506021541 72 360 5.2 7.8 0.00 0.00 0.00 36 1008.9
20260506020037 74 360 6.1 7.8 0.00 0.00 0.00 34 1008.7
20260506014547 75 360 6.1 8.7 0.00 0.00 0.00 31 1008.5
20260506013100 77 360 7.0 9.6 0.00 0.00 0.00 29 1008.6
20260506011544 78 360 7.8 12.2 0.00 0.00 0.00 28 1008.5
20260506010043 79 360 11.3 16.5 0.00 0.00 0.00 27 1008.6
20260506004538 79 360 12.2 20.0 0.00 0.00 0.00 27 1008.7
20260506003039 80 360 11.3 16.5 0.00 0.00 0.00 26 1008.7
20260506001546 80 360 9.6 19.1 0.00 0.00 0.00 27 1008.7
20260506000044 80 360 12.2 20.0 0.00 0.00 0.00 26 1008.7
20260505234543 80 360 14.8 25.2 0.00 0.00 0.00 27 1008.8
20260505233041 80 360 15.6 21.7 0.00 0.00 0.00 27 1008.8
20260505231541 79 360 16.5 23.5 0.00 0.00 0.00 28 1008.6
20260505230051 78 360 15.6 22.6 0.00 0.00 0.00 29 1008.7
20260505224537 78 360 16.5 21.7 0.00 0.00 0.00 30 1009.1
20260505223055 76 360 16.5 22.6 0.00 0.00 0.00 31 1009.2